"read_dt","SO2 (ppb)","flags","PMT voltage (V)","lamp voltage (V)","lamp intensity (Hz)","internal temp (C)","react chamber temp (C)","sample flow (l/min)","pres (mmHg)","SO2 bkg (ppb)","SO2 coefficient"
2018-10-17 00:00:00,-1.814E-01,4C000000*,-702.6,966.214,92,26.0,45.0,0.404,730.2,2.2,1.050*
2018-10-17 00:01:00,-1.945E-01,4C000000*,-703.0,965.809,91,26.1,44.8,0.404,730.5,2.2,1.050*
2018-10-17 00:02:00,-2.396E-01,4C000000*,-702.6,968.639,89,26.0,45.0,0.404,730.5,2.2,1.050*
2018-10-17 00:03:00,-1.815E-01,4C000000*,-703.0,965.809,89,26.1,45.1,0.404,730.2,2.2,1.050*
2018-10-17 00:04:00,-1.621E-01,4C000000*,-703.0,965.405,90,26.1,44.8,0.404,730.5,2.2,1.050*
2018-10-17 00:05:00,-9.606E-02,4C000000*,-702.6,965.405,88,26.0,45.0,0.404,730.5,2.2,1.050*
2018-10-17 00:06:00,-2.081E-01,4C000000*,-702.6,966.214,90,26.0,44.8,0.404,730.5,2.2,1.050*
2018-10-17 00:07:00,-2.122E-01,4C000000*,-703.0,965.809,89,26.0,44.9,0.404,730.5,2.2,1.050*
2018-10-17 00:08:00,-1.724E-01,4C000000*,-702.6,965.809,90,26.1,45.2,0.404,730.5,2.2,1.050*
2018-10-17 00:09:00,-2.903E-01,4C000000*,-702.6,967.022,90,26.0,44.8,0.404,730.5,2.2,1.050*
2018-10-17 00:10:00,-1.531E-01,4C000000*,-703.0,965.809,89,26.0,44.9,0.404,730.5,2.2,1.050*
2018-10-17 00:11:00,-2.041E-01,4C000000*,-702.6,967.022,90,26.0,45.0,0.403,730.5,2.2,1.050*
2018-10-17 00:12:00,-1.494E-01,4C000000*,-702.6,966.618,90,26.0,44.8,0.404,730.5,2.2,1.050*
2018-10-17 00:13:00,-2.197E-01,4C000000*,-703.0,966.618,90,26.0,45.0,0.403,730.5,2.2,1.050*
2018-10-17 00:14:00,-1.953E-01,4C000000*,-702.6,966.618,90,26.0,45.0,0.404,730.2,2.2,1.050*
2018-10-17 00:15:00,-1.502E-01,4C000000*,-703.0,967.831,90,26.0,44.8,0.404,730.2,2.2,1.050*
2018-10-17 00:16:00,-1.662E-01,4C000000*,-703.0,966.618,90,26.1,45.0,0.404,730.2,2.2,1.050*
2018-10-17 00:17:00,-2.012E-01,4C000000*,-703.0,967.427,90,26.1,44.9,0.404,730.2,2.2,1.050*
2018-10-17 00:18:00,-1.648E-01,4C000000*,-702.6,966.618,88,26.1,44.9,0.404,730.5,2.2,1.050*
2018-10-17 00:19:00,-1.732E-01,4C000000*,-703.0,968.235,91,26.1,45.1,0.404,730.2,2.2,1.050*
2018-10-17 00:20:00,-4.988E-02,4C000000*,-703.0,966.214,90,26.1,44.8,0.404,730.5,2.2,1.050*
2018-10-17 00:21:00,-1.524E-01,4C000000*,-702.3,967.427,88,26.1,44.9,0.404,730.5,2.2,1.050*
2018-10-17 00:22:00,-2.214E-01,4C000000*,-703.0,967.022,90,26.1,45.1,0.404,730.5,2.2,1.050*
2018-10-17 00:23:00,-2.050E-01,4C000000*,-703.4,966.214,91,26.0,44.8,0.403,730.5,2.2,1.050*
2018-10-17 00:24:00,-1.187E-01,4C000000*,-702.6,966.214,90,26.1,45.0,0.404,730.5,2.2,1.050*
2018-10-17 00:25:00,-4.717E-02,4C000000*,-702.6,967.022,88,26.0,45.0,0.404,730.2,2.2,1.050*
2018-10-17 00:26:00,-1.691E-01,4C000000*,-703.0,969.044,88,26.0,44.8,0.404,730.5,2.2,1.050*
2018-10-17 00:27:00,-1.286E-01,4C000000*,-703.0,967.831,87,26.0,45.0,0.404,730.5,2.2,1.050*
2018-10-17 00:28:00,-5.460E-02,4C000000*,-703.0,967.831,88,26.0,44.9,0.404,730.5,2.2,1.050*
2018-10-17 00:29:00,-1.290E-01,4C000000*,-702.6,966.214,91,26.0,44.9,0.404,730.5,2.2,1.050*
2018-10-17 00:30:00,-9.697E-02,4C000000*,-703.0,968.639,89,26.0,45.1,0.404,730.5,2.2,1.050*
2018-10-17 00:31:00,-5.677E-02,4C000000*,-703.0,969.044,90,26.1,44.9,0.404,730.2,2.2,1.050*
2018-10-17 00:32:00,-1.551E-01,4C000000*,-702.6,967.022,91,26.0,45.2,0.404,730.2,2.2,1.050*
2018-10-17 00:33:00,-2.517E-02,4C000000*,-702.6,967.831,89,26.0,44.8,0.404,730.5,2.2,1.050*
2018-10-17 00:34:00,-1.528E-01,4C000000*,-702.6,965.405,90,26.0,45.0,0.404,730.5,2.2,1.050*
2018-10-17 00:35:00,-9.731E-02,4C000000*,-703.0,967.427,88,26.0,45.0,0.404,730.5,2.2,1.050*
2018-10-17 00:36:00,-1.347E-01,4C000000*,-702.6,965.405,89,26.0,44.7,0.404,730.5,2.2,1.050*
2018-10-17 00:37:00,-8.472E-02,4C000000*,-703.4,967.022,90,26.0,45.0,0.404,730.5,2.2,1.050*
2018-10-17 00:38:00,-1.037E-01,4C000000*,-702.6,967.831,91,26.1,45.0,0.404,730.2,2.2,1.050*
2018-10-17 00:39:00,-7.573E-02,4C000000*,-702.6,966.214,91,26.0,44.8,0.403,730.5,2.2,1.050*
2018-10-17 00:40:00,-6.630E-02,4C000000*,-703.0,967.427,89,26.1,45.1,0.404,730.5,2.2,1.050*
2018-10-17 00:41:00,-1.615E-01,4C000000*,-702.6,968.639,90,26.0,44.8,0.404,730.2,2.2,1.050*
2018-10-17 00:42:00,2.540E-02,4C000000*,-703.0,967.831,91,26.0,44.9,0.404,730.5,2.2,1.050*
2018-10-17 00:43:00,-5.844E-02,4C000000*,-703.0,967.427,90,26.0,45.1,0.404,730.5,2.2,1.050*
2018-10-17 00:44:00,-7.826E-02,4C000000*,-703.0,964.597,90,26.0,44.8,0.403,730.5,2.2,1.050*
2018-10-17 00:45:00,-1.429E-01,4C000000*,-702.6,966.214,89,26.0,44.9,0.404,730.5,2.2,1.050*
2018-10-17 00:46:00,-6.033E-02,4C000000*,-703.0,966.214,89,26.0,45.0,0.404,730.2,2.2,1.050*
2018-10-17 00:47:00,-4.653E-02,4C000000*,-703.0,967.427,90,26.1,44.8,0.404,730.5,2.2,1.050*
2018-10-17 00:48:00,-9.784E-02,4C000000*,-703.0,967.427,90,26.0,45.0,0.404,730.5,2.2,1.050*
2018-10-17 00:49:00,1.393E-02,4C000000*,-703.0,967.022,87,26.0,45.0,0.404,730.2,2.2,1.050*
2018-10-17 00:50:00,9.285E-03,4C000000*,-702.6,969.852,88,26.0,44.8,0.404,730.5,2.2,1.050*
2018-10-17 00:51:00,-3.331E-02,4C000000*,-703.0,968.235,89,26.0,45.1,0.404,730.5,2.2,1.050*
2018-10-17 00:52:00,-1.039E-01,4C000000*,-703.0,965.809,90,26.0,44.9,0.404,730.5,2.2,1.050*
2018-10-17 00:53:00,-3.885E-02,4C000000*,-703.0,966.618,89,26.0,44.9,0.404,730.5,2.2,1.050*
2018-10-17 00:54:00,5.436E-03,4C000000*,-703.0,967.831,91,26.1,45.2,0.404,730.5,2.2,1.050*
2018-10-17 00:55:00,-9.090E-02,4C000000*,-702.6,967.427,91,26.0,44.8,0.404,730.5,2.2,1.050*
2018-10-17 00:56:00,-7.717E-02,4C000000*,-703.0,966.618,88,26.1,44.9,0.404,730.5,2.2,1.050*
2018-10-17 00:57:00,-1.028E-01,4C000000*,-703.0,968.235,91,26.1,45.0,0.404,730.2,2.2,1.050*
2018-10-17 00:58:00,-6.318E-02,4C000000*,-702.6,967.427,91,26.0,44.8,0.404,730.5,2.2,1.050*
2018-10-17 00:59:00,-2.219E-02,4C000000*,-702.6,967.831,89,26.1,45.0,0.404,730.5,2.2,1.050*
2018-10-17 01:00:00,4.426E-02,4C000000*,-702.6,967.022,89,26.0,45.0,0.404,730.5,2.2,1.050*
2018-10-17 01:01:00,-1.040E-01,4C000000*,-703.0,967.022,91,26.0,44.8,0.404,730.5,2.2,1.050*
2018-10-17 01:02:00,-6.011E-02,4C000000*,-703.0,967.427,89,26.1,45.1,0.404,730.5,2.2,1.050*
2018-10-17 01:03:00,-1.628E-02,4C000000*,-703.0,968.639,90,26.1,44.9,0.404,730.5,2.2,1.050*
2018-10-17 01:04:00,-1.384E-01,4C000000*,-703.0,967.831,89,26.0,44.9,0.403,730.5,2.2,1.050*
2018-10-17 01:05:00,-1.521E-01,4C000000*,-703.0,968.235,91,26.0,45.2,0.404,730.5,2.2,1.050*
2018-10-17 01:06:00,-1.679E-01,4C000000*,-703.0,967.427,89,26.0,44.8,0.404,730.5,2.2,1.050*
2018-10-17 01:07:00,-8.784E-02,4C000000*,-702.6,966.214,91,26.1,45.0,0.404,730.5,2.2,1.050*
2018-10-17 01:08:00,-6.652E-02,4C000000*,-703.4,966.618,90,26.0,45.0,0.404,730.5,2.2,1.050*
2018-10-17 01:09:00,-1.499E-01,4C000000*,-702.6,966.618,90,26.0,44.8,0.404,730.5,2.2,1.050*
2018-10-17 01:10:00,-1.945E-01,4C000000*,-702.6,965.405,89,26.0,45.0,0.404,730.5,2.2,1.050*
2018-10-17 01:11:00,-6.425E-02,4C000000*,-703.0,967.831,89,26.0,45.0,0.404,730.5,2.2,1.050*
2018-10-17 01:12:00,-9.455E-02,4C000000*,-702.6,966.214,91,26.0,44.8,0.404,730.5,2.2,1.050*
2018-10-17 01:13:00,-1.616E-01,4C000000*,-703.0,966.618,91,26.0,45.0,0.404,730.5,2.2,1.050*
2018-10-17 01:14:00,-2.018E-01,4C000000*,-702.6,967.427,89,26.0,44.9,0.404,730.5,2.2,1.050*
2018-10-17 01:15:00,-1.960E-01,4C000000*,-703.0,969.448,89,26.0,44.9,0.403,730.5,2.2,1.050*
2018-10-17 01:16:00,-7.011E-02,4C000000*,-703.0,967.022,90,26.0,45.2,0.404,730.5,2.2,1.050*
2018-10-17 01:17:00,-1.185E-01,4C000000*,-703.0,965.809,89,26.0,44.8,0.404,730.5,2.2,1.050*
2018-10-17 01:18:00,-1.042E-01,4C000000*,-702.6,967.831,90,26.0,44.9,0.404,730.5,2.2,1.050*
2018-10-17 01:19:00,-1.388E-01,4C000000*,-703.0,966.618,90,26.0,45.0,0.403,730.5,2.2,1.050*
2018-10-17 01:20:00,-5.807E-02,4C000000*,-703.0,968.235,89,26.0,44.8,0.404,730.5,2.2,1.050*
2018-10-17 01:21:00,-5.250E-02,4C000000*,-702.6,967.427,90,26.0,45.0,0.403,730.5,2.2,1.050*
2018-10-17 01:22:00,-1.142E-01,4C000000*,-703.0,966.618,92,26.0,45.1,0.404,730.2,2.2,1.050*
2018-10-17 01:23:00,-1.421E-01,4C000000*,-702.6,966.618,90,26.0,44.8,0.404,730.5,2.2,1.050*
2018-10-17 01:24:00,-5.855E-02,4C000000*,-703.0,968.639,90,26.0,45.1,0.404,730.5,2.2,1.050*
2018-10-17 01:25:00,-1.310E-01,4C000000*,-703.0,966.618,90,26.0,44.9,0.404,730.5,2.2,1.050*
2018-10-17 01:26:00,-1.414E-02,4C000000*,-702.3,965.809,89,26.0,44.8,0.404,730.5,2.2,1.050*
2018-10-17 01:27:00,7.689E-03,4C000000*,-703.0,967.427,90,26.0,45.1,0.404,730.5,2.2,1.050*
2018-10-17 01:28:00,-2.213E-02,4C000000*,-702.6,967.427,89,26.0,44.8,0.404,730.5,2.2,1.050*
2018-10-17 01:29:00,-7.796E-02,4C000000*,-702.6,967.427,91,26.0,44.9,0.404,730.8,2.2,1.050*
2018-10-17 01:30:00,-9.293E-02,4C000000*,-702.6,966.214,89,25.9,45.1,0.404,730.5,2.2,1.050*
2018-10-17 01:31:00,3.704E-03,4C000000*,-703.0,967.022,90,26.0,44.8,0.404,730.8,2.2,1.050*
2018-10-17 01:32:00,-5.895E-02,4C000000*,-703.0,967.831,88,26.0,44.9,0.404,730.8,2.2,1.050*
2018-10-17 01:33:00,-5.642E-02,4C000000*,-703.0,965.405,90,26.0,45.1,0.404,730.5,2.2,1.050*
2018-10-17 01:34:00,-3.069E-02,4C000000*,-703.0,965.001,89,25.9,44.8,0.404,730.5,2.2,1.050*
2018-10-17 01:35:00,-4.421E-03,4C000000*,-703.0,965.809,89,26.0,45.0,0.404,730.5,2.2,1.050*
2018-10-17 01:36:00,-9.822E-02,4C000000*,-702.6,967.022,89,26.0,44.9,0.404,730.5,2.2,1.050*
2018-10-17 01:37:00,-1.072E-01,4C000000*,-703.4,967.427,89,26.0,44.8,0.403,730.8,2.2,1.050*
2018-10-17 01:38:00,-4.603E-02,4C000000*,-702.6,968.639,88,26.0,45.1,0.403,730.5,2.2,1.050*
2018-10-17 01:39:00,-6.797E-02,4C000000*,-703.0,965.405,91,26.0,44.8,0.404,730.5,2.2,1.050*
2018-10-17 01:40:00,-6.403E-02,4C000000*,-703.0,967.831,90,26.0,44.9,0.404,730.8,2.2,1.050*
2018-10-17 01:41:00,-2.225E-02,4C000000*,-703.0,966.618,90,26.1,45.1,0.404,730.5,2.2,1.050*
2018-10-17 01:42:00,-3.519E-02,4C000000*,-703.4,966.618,91,26.1,44.8,0.404,730.8,2.2,1.050*
2018-10-17 01:43:00,-5.012E-03,4C000000*,-703.0,966.214,91,26.0,45.0,0.404,730.8,2.2,1.050*
2018-10-17 01:44:00,5.114E-02,4C000000*,-703.0,967.022,90,26.1,45.1,0.404,730.5,2.2,1.050*
2018-10-17 01:45:00,4.950E-02,4C000000*,-703.0,967.022,90,26.0,44.8,0.404,730.8,2.2,1.050*
2018-10-17 01:46:00,-2.875E-02,4C000000*,-703.0,967.022,89,26.0,45.0,0.404,730.8,2.2,1.050*
2018-10-17 01:47:00,9.156E-03,4C000000*,-703.0,966.214,91,26.0,44.9,0.404,730.5,2.2,1.050*
2018-10-17 01:48:00,1.335E-02,4C000000*,-703.0,966.618,90,26.0,44.8,0.404,730.8,2.2,1.050*
2018-10-17 01:49:00,1.014E-01,4C000000*,-702.6,965.405,91,26.0,45.0,0.404,730.8,2.2,1.050*
2018-10-17 01:50:00,5.682E-02,4C000000*,-702.6,966.618,89,26.0,44.8,0.404,730.8,2.2,1.050*
2018-10-17 01:51:00,4.605E-02,4C000000*,-703.0,965.405,91,26.0,44.9,0.404,730.5,2.2,1.050*
2018-10-17 01:52:00,7.324E-02,4C000000*,-703.0,966.214,91,26.0,45.2,0.404,730.8,2.2,1.050*
2018-10-17 01:53:00,1.669E-01,4C000000*,-703.0,966.618,90,26.0,44.8,0.404,730.5,2.2,1.050*
2018-10-17 01:54:00,1.296E-01,4C000000*,-703.0,964.597,89,26.0,45.0,0.404,730.8,2.2,1.050*
2018-10-17 01:55:00,1.701E-01,4C000000*,-703.0,965.809,89,26.0,45.0,0.404,730.5,2.2,1.050*
2018-10-17 01:56:00,5.968E-02,4C000000*,-703.4,965.001,90,26.0,44.8,0.404,730.8,2.2,1.050*
2018-10-17 01:57:00,1.343E-01,4C000000*,-703.0,965.405,90,26.1,45.0,0.404,730.8,2.2,1.050*
2018-10-17 01:58:00,3.305E-02,4C000000*,-703.0,965.809,89,26.1,44.9,0.404,730.5,2.2,1.050*
2018-10-17 01:59:00,8.055E-02,4C000000*,-702.6,965.001,90,26.0,45.0,0.404,730.8,2.2,1.050*
2018-10-17 02:00:00,8.120E-03,4C000000*,-702.6,965.405,90,26.0,45.0,0.404,730.5,2.2,1.050*
2018-10-17 02:01:00,-4.582E-03,4C000000*,-702.6,965.809,91,26.0,44.8,0.404,730.8,2.2,1.050*
2018-10-17 02:02:00,6.946E-02,4C000000*,-703.0,966.618,91,26.0,45.0,0.404,730.5,2.2,1.050*
2018-10-17 02:03:00,7.691E-02,4C000000*,-703.0,964.597,90,26.1,45.1,0.404,730.5,2.2,1.050*
2018-10-17 02:04:00,1.998E-01,4C000000*,-702.6,965.405,91,26.0,44.8,0.404,730.8,2.2,1.050*
2018-10-17 02:05:00,1.439E-02,4C000000*,-703.0,965.405,90,26.1,45.1,0.404,730.8,2.2,1.050*
2018-10-17 02:06:00,1.339E-01,4C000000*,-703.0,964.192,90,26.0,44.9,0.404,730.5,2.2,1.050*
2018-10-17 02:07:00,5.910E-02,4C000000*,-703.0,964.597,90,26.0,44.9,0.404,730.5,2.2,1.050*
2018-10-17 02:08:00,3.733E-02,4C000000*,-702.6,965.001,90,26.0,45.1,0.404,730.5,2.2,1.050*
2018-10-17 02:09:00,9.326E-02,4C000000*,-702.6,965.001,90,26.0,44.8,0.404,730.8,2.2,1.050*
2018-10-17 02:10:00,3.785E-02,4C000000*,-703.0,964.597,90,26.0,44.9,0.404,730.8,2.2,1.050*
2018-10-17 02:11:00,1.357E-01,4C000000*,-703.0,966.618,90,26.0,45.1,0.404,730.8,2.2,1.050*
2018-10-17 02:12:00,6.462E-02,4C000000*,-703.0,965.405,89,26.0,44.8,0.404,730.8,2.2,1.050*
2018-10-17 02:13:00,2.312E-02,4C000000*,-702.6,965.405,90,25.9,45.0,0.404,730.8,2.2,1.050*
2018-10-17 02:14:00,5.719E-02,4C000000*,-703.0,966.618,89,26.0,45.0,0.404,730.8,2.2,1.050*
2018-10-17 02:15:00,1.215E-01,4C000000*,-702.6,965.001,90,25.9,44.8,0.404,730.8,2.2,1.050*
2018-10-17 02:16:00,1.108E-01,4C000000*,-702.6,966.618,90,26.0,45.1,0.404,730.8,2.2,1.050*
2018-10-17 02:17:00,8.746E-02,4C000000*,-702.6,966.214,89,25.9,44.9,0.404,730.5,2.2,1.050*
2018-10-17 02:18:00,3.405E-02,4C000000*,-702.6,968.235,90,26.0,44.9,0.404,730.8,2.2,1.050*
2018-10-17 02:19:00,4.170E-02,4C000000*,-703.0,967.427,91,26.0,45.1,0.404,730.8,2.2,1.050*
2018-10-17 02:20:00,1.317E-01,4C000000*,-703.0,967.427,90,26.0,44.8,0.404,730.8,2.2,1.050*
2018-10-17 02:21:00,1.030E-01,4C000000*,-703.0,965.809,89,26.0,45.0,0.404,730.8,2.2,1.050*
2018-10-17 02:22:00,9.523E-02,4C000000*,-703.0,968.235,91,26.0,45.0,0.404,730.8,2.2,1.050*
2018-10-17 02:23:00,9.132E-02,4C000000*,-702.6,968.639,90,26.0,44.8,0.404,730.8,2.2,1.050*
2018-10-17 02:24:00,1.692E-01,4C000000*,-703.0,968.235,90,26.0,45.0,0.404,730.8,2.2,1.050*
2018-10-17 02:25:00,1.171E-01,4C000000*,-703.0,969.852,90,26.0,45.1,0.404,730.8,2.2,1.050*
2018-10-17 02:26:00,6.870E-02,4C000000*,-702.6,967.427,90,26.0,44.8,0.404,730.8,2.2,1.050*
2018-10-17 02:27:00,9.576E-02,4C000000*,-702.6,968.235,89,26.0,45.0,0.404,730.8,2.2,1.050*
2018-10-17 02:28:00,-1.518E-03,4C000000*,-702.6,967.831,91,26.0,44.9,0.404,730.5,2.2,1.050*
2018-10-17 02:29:00,4.475E-02,4C000000*,-703.0,967.831,90,25.9,44.8,0.403,730.8,2.2,1.050*
2018-10-17 02:30:00,1.959E-01,4C000000*,-703.0,968.639,91,26.0,45.1,0.404,730.5,2.2,1.050*
2018-10-17 02:31:00,1.688E-01,4C000000*,-702.6,965.405,90,26.0,44.8,0.404,730.8,2.2,1.050*
2018-10-17 02:32:00,1.398E-01,4C000000*,-702.6,966.618,91,26.0,44.9,0.404,730.8,2.2,1.050*
2018-10-17 02:33:00,1.068E-01,4C000000*,-702.6,966.618,91,26.0,45.1,0.403,730.5,2.2,1.050*
2018-10-17 02:34:00,1.016E-01,4C000000*,-703.0,967.022,90,25.9,44.8,0.404,730.8,2.2,1.050*
2018-10-17 02:35:00,1.529E-01,4C000000*,-702.6,966.214,90,26.0,45.0,0.404,730.8,2.2,1.050*
2018-10-17 02:36:00,9.306E-02,4C000000*,-703.4,965.809,89,25.9,45.0,0.404,730.8,2.2,1.050*
2018-10-17 02:37:00,8.704E-02,4C000000*,-702.6,967.022,89,25.9,44.8,0.404,730.8,2.2,1.050*
2018-10-17 02:38:00,5.255E-02,4C000000*,-702.6,967.831,90,26.0,45.0,0.404,730.8,2.2,1.050*
2018-10-17 02:39:00,1.324E-01,4C000000*,-703.0,965.405,89,26.0,44.9,0.404,730.8,2.2,1.050*
2018-10-17 02:40:00,1.496E-01,4C000000*,-702.6,966.618,90,26.0,44.9,0.404,730.8,2.2,1.050*
2018-10-17 02:41:00,1.229E-01,4C000000*,-703.0,967.022,89,25.9,45.1,0.404,730.8,2.2,1.050*
2018-10-17 02:42:00,2.603E-03,4C000000*,-703.0,967.022,91,26.0,44.8,0.404,730.8,2.2,1.050*
2018-10-17 02:43:00,3.040E-02,4C000000*,-703.0,966.618,90,26.0,44.9,0.404,730.8,2.2,1.050*
2018-10-17 02:44:00,9.679E-02,4C000000*,-703.0,967.831,89,26.0,45.1,0.404,730.8,2.2,1.050*
2018-10-17 02:45:00,-8.990E-03,4C000000*,-703.0,966.214,88,26.0,44.8,0.404,730.8,2.2,1.050*
2018-10-17 02:46:00,1.200E-01,4C000000*,-703.0,966.214,90,26.0,45.0,0.404,730.8,2.2,1.050*
2018-10-17 02:47:00,3.942E-02,4C000000*,-703.0,967.022,90,26.0,45.0,0.404,730.8,2.2,1.050*
2018-10-17 02:48:00,1.475E-02,4C000000*,-703.0,967.427,90,26.0,44.8,0.404,730.8,2.2,1.050*
2018-10-17 02:49:00,1.483E-01,4C000000*,-702.6,967.831,90,26.0,45.0,0.404,730.8,2.2,1.050*
2018-10-17 02:50:00,8.625E-02,4C000000*,-702.6,967.831,89,26.0,45.0,0.404,730.8,2.2,1.050*
2018-10-17 02:51:00,1.269E-01,4C000000*,-703.4,967.831,90,26.0,44.9,0.404,730.8,2.2,1.050*
2018-10-17 02:52:00,1.240E-01,4C000000*,-703.0,969.044,91,26.0,45.1,0.404,730.8,2.2,1.050*
2018-10-17 02:53:00,1.443E-01,4C000000*,-702.6,969.044,89,25.9,44.8,0.404,730.5,2.2,1.050*
2018-10-17 02:54:00,1.034E-01,4C000000*,-703.0,967.022,91,25.9,44.9,0.404,730.8,2.2,1.050*
2018-10-17 02:55:00,1.343E-01,4C000000*,-702.3,968.235,89,25.9,45.2,0.404,730.8,2.2,1.050*
2018-10-17 02:56:00,-4.294E-02,4C000000*,-702.6,966.214,91,25.9,44.8,0.404,730.8,2.2,1.050*
2018-10-17 02:57:00,1.397E-01,4C000000*,-702.6,967.022,90,25.9,45.0,0.404,730.8,2.2,1.050*
2018-10-17 02:58:00,8.071E-02,4C000000*,-703.0,966.214,89,26.0,45.0,0.404,730.8,2.2,1.050*
2018-10-17 02:59:00,-2.349E-03,4C000000*,-702.6,965.809,89,26.0,44.8,0.404,730.8,2.2,1.050*
2018-10-17 03:00:00,1.509E-01,4C000000*,-703.0,966.618,90,26.0,45.0,0.404,730.8,2.2,1.050*
2018-10-17 03:01:00,-3.699E-02,4C000000*,-702.6,966.214,90,26.0,45.0,0.404,730.5,2.2,1.050*
2018-10-17 03:02:00,7.810E-02,4C000000*,-702.6,966.214,91,26.1,44.8,0.404,730.8,2.2,1.050*
2018-10-17 03:03:00,1.976E-02,4C000000*,-703.0,967.022,90,26.0,45.0,0.404,730.8,2.2,1.050*
2018-10-17 03:04:00,9.410E-02,4C000000*,-702.6,966.618,90,26.0,44.9,0.404,730.8,2.2,1.050*
2018-10-17 03:05:00,2.592E-02,4C000000*,-703.0,966.214,89,26.0,44.9,0.404,730.8,2.2,1.050*
2018-10-17 03:06:00,9.508E-02,4C000000*,-703.0,966.214,90,26.0,45.2,0.404,730.8,2.2,1.050*
2018-10-17 03:07:00,6.689E-02,4C000000*,-703.0,967.427,88,26.0,44.8,0.404,730.8,2.2,1.050*
2018-10-17 03:08:00,5.133E-02,4C000000*,-703.4,967.427,90,26.0,45.0,0.404,730.8,2.2,1.050*
2018-10-17 03:09:00,9.026E-02,4C000000*,-702.6,968.235,90,26.0,45.0,0.404,730.8,2.2,1.050*
2018-10-17 03:10:00,8.446E-02,4C000000*,-702.6,965.809,88,26.0,44.8,0.404,730.8,2.2,1.050*
2018-10-17 03:11:00,5.644E-02,4C000000*,-702.6,965.001,90,26.0,45.0,0.404,730.8,2.2,1.050*
2018-10-17 03:12:00,7.709E-02,4C000000*,-702.6,966.214,89,26.0,45.0,0.404,730.5,2.2,1.050*
2018-10-17 03:13:00,1.194E-01,4C000000*,-703.0,965.405,91,25.9,44.8,0.404,730.8,2.2,1.050*
2018-10-17 03:14:00,3.046E-02,4C000000*,-702.6,966.618,90,26.0,45.0,0.404,730.8,2.2,1.050*
2018-10-17 03:15:00,5.941E-02,4C000000*,-702.6,967.831,89,26.0,44.8,0.404,730.8,2.2,1.050*
2018-10-17 03:16:00,3.581E-02,4C000000*,-702.6,966.214,91,26.0,44.8,0.404,730.8,2.2,1.050*
2018-10-17 03:17:00,5.386E-02,4C000000*,-703.0,966.618,89,26.0,45.2,0.404,730.5,2.2,1.050*
2018-10-17 03:18:00,2.943E-02,4C000000*,-702.6,967.022,90,26.0,44.8,0.404,730.5,2.2,1.050*
2018-10-17 03:19:00,-3.743E-02,4C000000*,-703.0,967.427,90,26.0,45.0,0.404,730.8,2.2,1.050*
2018-10-17 03:20:00,3.904E-02,4C000000*,-703.0,967.427,92,26.0,45.0,0.403,730.8,2.2,1.050*
2018-10-17 03:21:00,4.994E-02,4C000000*,-702.6,969.044,89,26.0,44.8,0.404,730.8,2.2,1.050*
2018-10-17 03:22:00,2.763E-02,4C000000*,-703.4,969.448,90,26.0,45.0,0.404,730.8,2.2,1.050*
2018-10-17 03:23:00,3.822E-02,4C000000*,-703.0,967.427,91,26.0,45.1,0.404,730.5,2.2,1.050*
2018-10-17 03:24:00,-5.428E-02,4C000000*,-702.6,967.427,91,26.0,44.8,0.404,730.8,2.2,1.050*
2018-10-17 03:25:00,-7.190E-02,4C000000*,-703.0,966.214,88,26.0,45.0,0.404,730.8,2.2,1.050*
2018-10-17 03:26:00,9.275E-02,4C000000*,-703.0,968.639,90,26.0,44.8,0.404,730.8,2.2,1.050*
2018-10-17 03:27:00,1.782E-04,4C000000*,-703.0,966.214,90,25.9,44.8,0.404,730.8,2.2,1.050*
2018-10-17 03:28:00,-9.990E-02,4C000000*,-703.0,967.831,91,26.0,45.2,0.404,730.8,2.2,1.050*
2018-10-17 03:29:00,1.537E-02,4C000000*,-703.0,967.427,90,25.9,44.8,0.404,730.8,2.2,1.050*
2018-10-17 03:30:00,-2.832E-02,4C000000*,-702.6,967.022,90,26.0,45.0,0.404,730.8,2.2,1.050*
2018-10-17 03:31:00,-3.129E-02,4C000000*,-703.0,966.618,90,25.9,45.0,0.404,730.8,2.2,1.050*
2018-10-17 03:32:00,-3.433E-02,4C000000*,-702.6,966.214,88,25.9,44.8,0.404,730.8,2.2,1.050*
2018-10-17 03:33:00,6.710E-02,4C000000*,-703.0,968.235,88,25.9,45.0,0.404,730.8,2.2,1.050*
2018-10-17 03:34:00,-4.964E-02,4C000000*,-702.6,968.235,89,25.9,45.1,0.404,730.8,2.2,1.050*
2018-10-17 03:35:00,-6.207E-02,4C000000*,-703.4,966.214,89,25.9,44.8,0.404,730.8,2.2,1.050*
2018-10-17 03:36:00,-7.012E-02,4C000000*,-703.0,968.235,89,25.9,45.0,0.404,730.8,2.2,1.050*
2018-10-17 03:37:00,-1.677E-01,4C000000*,-702.3,969.448,91,26.0,44.9,0.404,730.8,2.2,1.050*
2018-10-17 03:38:00,8.548E-02,4C000000*,-702.6,966.214,88,26.0,44.9,0.404,730.8,2.2,1.050*
2018-10-17 03:39:00,-1.122E-01,4C000000*,-703.0,969.044,90,26.0,45.1,0.404,731.1,2.2,1.050*
2018-10-17 03:40:00,-9.665E-02,4C000000*,-702.6,967.831,88,26.0,44.8,0.404,730.8,2.2,1.050*
2018-10-17 03:41:00,-5.948E-02,4C000000*,-703.0,967.022,90,26.0,44.9,0.404,730.8,2.2,1.050*
2018-10-17 03:42:00,-1.766E-02,4C000000*,-703.0,965.001,90,26.0,45.1,0.404,730.8,2.2,1.050*
2018-10-17 03:43:00,5.715E-02,4C000000*,-702.6,967.831,89,26.0,44.8,0.404,730.8,2.2,1.050*
2018-10-17 03:44:00,-8.553E-02,4C000000*,-703.0,966.618,90,25.9,45.0,0.404,730.8,2.2,1.050*
2018-10-17 03:45:00,-2.764E-02,4C000000*,-703.0,968.235,89,26.0,45.1,0.404,730.8,2.2,1.050*
2018-10-17 03:46:00,-1.039E-01,4C000000*,-703.0,967.831,89,25.9,44.8,0.404,730.8,2.2,1.050*
2018-10-17 03:47:00,-7.784E-02,4C000000*,-703.0,967.022,90,26.0,45.1,0.404,730.8,2.2,1.050*
2018-10-17 03:48:00,-7.124E-03,4C000000*,-703.4,969.044,90,25.9,44.9,0.404,730.8,2.2,1.050*
2018-10-17 03:49:00,1.491E-02,4C000000*,-702.3,969.852,89,25.9,44.9,0.404,730.8,2.2,1.050*
2018-10-17 03:50:00,1.349E-02,4C000000*,-703.0,968.639,90,25.9,45.1,0.404,730.8,2.2,1.050*
2018-10-17 03:51:00,-8.496E-02,4C000000*,-703.0,967.831,89,25.9,44.8,0.404,730.8,2.2,1.050*
2018-10-17 03:52:00,6.953E-02,4C000000*,-703.0,970.256,91,25.9,44.9,0.404,730.8,2.2,1.050*
2018-10-17 03:53:00,2.388E-02,4C000000*,-703.0,969.044,91,25.9,45.1,0.404,730.8,2.2,1.050*
2018-10-17 03:54:00,-6.833E-02,4C000000*,-702.6,968.235,90,25.9,44.8,0.404,730.8,2.2,1.050*
2018-10-17 03:55:00,-1.078E-01,4C000000*,-702.6,968.639,90,25.9,45.0,0.404,730.5,2.2,1.050*
2018-10-17 03:56:00,-7.691E-02,4C000000*,-703.0,965.809,88,25.9,45.1,0.404,730.8,2.2,1.050*
2018-10-17 03:57:00,-8.033E-02,4C000000*,-703.4,967.022,88,25.9,44.8,0.404,730.8,2.2,1.050*
2018-10-17 03:58:00,-9.564E-02,4C000000*,-702.6,965.001,89,25.9,45.1,0.404,730.8,2.2,1.050*
2018-10-17 03:59:00,-1.000E-01,4C000000*,-703.0,965.809,89,25.9,44.9,0.404,730.8,2.2,1.050*
2018-10-17 04:00:00,-6.308E-02,4C000000*,-703.4,967.831,90,25.9,44.8,0.404,730.8,2.2,1.050*
2018-10-17 04:01:00,-2.027E-02,4C000000*,-703.0,969.044,91,25.9,45.1,0.404,730.8,2.2,1.050*
2018-10-17 04:02:00,-5.335E-02,4C000000*,-703.0,969.044,90,25.9,44.8,0.404,730.8,2.2,1.050*
2018-10-17 04:03:00,-1.171E-01,4C000000*,-702.6,967.022,91,25.9,44.9,0.404,731.1,2.2,1.050*
2018-10-17 04:04:00,-5.905E-02,4C000000*,-703.4,964.597,90,25.9,45.1,0.404,730.8,2.2,1.050*
2018-10-17 04:05:00,-9.049E-02,4C000000*,-703.0,968.235,89,25.9,44.7,0.404,730.8,2.2,1.050*
2018-10-17 04:06:00,-8.764E-02,4C000000*,-702.6,968.235,88,26.0,44.9,0.404,730.8,2.2,1.050*
2018-10-17 04:07:00,-7.092E-02,4C000000*,-703.0,969.852,89,25.9,45.1,0.404,730.8,2.2,1.050*
2018-10-17 04:08:00,-2.783E-02,4C000000*,-703.4,969.044,91,25.8,44.8,0.404,730.8,2.2,1.050*
2018-10-17 04:09:00,-1.501E-01,4C000000*,-703.4,969.044,90,25.8,45.1,0.404,730.8,2.2,1.050*
2018-10-17 04:10:00,-1.112E-01,4C000000*,-702.6,970.661,91,25.8,44.9,0.404,730.8,2.2,1.050*
2018-10-17 04:11:00,-4.950E-02,4C000000*,-703.0,969.448,90,25.8,45.0,0.404,730.8,2.2,1.050*
2018-10-17 04:12:00,-8.877E-02,4C000000*,-702.6,969.448,90,25.8,45.0,0.404,730.8,2.2,1.050*
2018-10-17 04:13:00,-1.680E-01,4C000000*,-702.6,969.044,91,25.9,44.8,0.404,730.8,2.2,1.050*
2018-10-17 04:14:00,-1.778E-01,4C000000*,-703.4,969.044,89,25.9,45.0,0.404,730.8,2.2,1.050*
2018-10-17 04:15:00,-1.279E-01,4C000000*,-702.3,968.235,91,25.8,45.0,0.404,730.8,2.2,1.050*
2018-10-17 04:16:00,-1.036E-01,4C000000*,-702.6,969.852,89,25.9,44.8,0.404,730.8,2.2,1.050*